EW3497 Weather Reports


time (UTC)temp
F
wind
direction
speed
knots
gust
knots
rain 1hr
in
rain 24hr
in
rain mn
in
humidity
%
barometer
mb
20260507223604 76 294 7.0 16.5 0.00 0.00 0.00 25 1012.6
20260507222704 76 315 5.2 15.6 0.00 0.00 0.00 25 1012.7
20260507221806 75 306 7.0 16.5 0.00 0.00 0.00 26 1012.7
20260507220904 74 312 10.4 18.2 0.00 0.00 0.00 25 1012.9
20260507220004 74 308 9.6 20.9 0.00 0.00 0.00 25 1013.0
20260507215404 74 317 11.3 21.7 0.00 0.00 0.00 25 1013.1
20260507214504 74 319 12.2 26.9 0.00 0.00 0.00 26 1013.2
20260507213604 75 319 7.0 13.9 0.00 0.00 0.00 27 1013.2
20260507212704 75 329 8.7 18.2 0.00 0.00 0.00 27 1013.3
20260507211804 75 330 8.7 19.1 0.00 0.00 0.00 27 1013.3
20260507210904 75 323 7.0 15.6 0.00 0.00 0.00 31 1013.4
20260507210006 74 320 7.0 15.6 0.00 0.00 0.00 31 1013.6
20260507205404 74 328 5.2 15.6 0.00 0.00 0.00 32 1013.7
20260507204505 73 349 6.1 15.6 0.00 0.00 0.00 32 1013.8
20260507203604 72 2 8.7 19.1 0.00 0.00 0.00 32 1013.9
20260507202704 72 348 9.6 21.7 0.00 0.00 0.00 32 1013.9
20260507201804 72 340 8.7 18.2 0.00 0.00 0.00 32 1014.1
20260507200904 72 340 10.4 18.2 0.00 0.00 0.00 32 1014.1
20260507200025 72 346 9.6 18.2 0.00 0.00 0.00 31 1014.2
20260507195426 71 337 9.6 16.5 0.00 0.00 0.00 33 1014.1
20260507194504 70 350 8.7 19.1 0.00 0.00 0.00 33 1014.3
20260507193604 70 338 8.7 17.4 0.00 0.00 0.00 35 1014.4
20260507192704 69 356 9.6 17.4 0.00 0.00 0.00 36 1014.5
20260507191804 69 17 7.8 18.2 0.00 0.00 0.00 35 1014.8
20260507190904 69 26 7.0 13.9 0.00 0.00 0.00 36 1014.9
20260507190005 70 18 6.1 13.9 0.00 0.00 0.00 36 1014.9
20260507185425 70 16 7.0 16.5 0.00 0.00 0.00 38 1014.9
20260507184504 70 5 7.0 15.6 0.00 0.00 0.00 38 1015.0
20260507183604 69 2 6.1 13.9 0.00 0.00 0.00 39 1015.0
20260507182725 68 1 7.0 16.5 0.00 0.00 0.00 42 1015.1
20260507181804 67 346 7.0 13.9 0.00 0.00 0.00 43 1015.2
20260507180904 67 7 7.0 16.5 0.00 0.00 0.00 43 1015.2
20260507180004 66 357 7.8 18.2 0.00 0.00 0.00 47 1015.3
20260507175426 66 356 8.7 18.2 0.00 0.00 0.00 46 1015.4
20260507174525 65 357 8.7 18.2 0.00 0.00 0.00 47 1015.4
20260507173625 64 344 9.6 19.1 0.00 0.00 0.00 48 1015.5
20260507172704 64 354 9.6 18.2 0.00 0.00 0.00 49 1015.7
20260507171804 64 356 8.7 13.9 0.00 0.00 0.00 51 1015.8
20260507170904 64 346 8.7 19.1 0.00 0.00 0.00 51 1015.9
20260507170004 63 349 7.8 16.5 0.00 0.00 0.00 53 1015.9
20260507165404 63 349 7.8 15.6 0.00 0.00 0.00 53 1016.0
20260507164504 63 351 5.2 12.2 0.00 0.00 0.00 55 1016.0
20260507163604 63 343 6.1 17.4 0.00 0.00 0.00 56 1016.0
20260507162704 62 341 6.1 12.2 0.00 0.00 0.00 57 1016.0
20260507161825 61 336 6.1 12.2 0.00 0.00 0.00 58 1016.0
20260507160904 61 312 5.2 13.0 0.00 0.00 0.00 59 1016.2
20260507160007 61 308 6.1 12.2 0.00 0.00 0.00 60 1016.3
20260507155404 60 319 5.2 12.2 0.00 0.00 0.00 61 1016.4
20260507154504 60 318 6.1 12.2 0.00 0.00 0.00 61 1016.5
20260507153608 60 307 5.2 13.0 0.00 0.00 0.00 60 1016.6
20260507152704 60 302 4.3 13.0 0.00 0.00 0.00 62 1016.7
20260507151804 60 300 5.2 12.2 0.00 0.00 0.00 62 1016.8
20260507150904 60 288 6.1 12.2 0.00 0.00 0.00 63 1016.7
20260507150025 59 306 4.3 10.4 0.00 0.00 0.00 65 1016.7
20260507145404 59 295 5.2 10.4 0.00 0.00 0.00 65 1016.7
20260507144504 58 301 6.1 13.0 0.00 0.00 0.00 67 1016.7
20260507143604 58 306 7.0 13.0 0.00 0.00 0.00 67 1016.6
20260507142704 57 326 6.1 13.9 0.00 0.00 0.00 69 1016.6
20260507141804 57 343 6.1 13.9 0.00 0.00 0.00 69 1016.6
20260507140904 57 345 6.1 13.0 0.00 0.00 0.00 70 1016.6
20260507140025 56 353 7.0 12.2 0.00 0.00 0.00 71 1016.6
20260507135404 56 351 6.1 10.4 0.00 0.00 0.00 71 1016.6
20260507134504 56 345 6.1 12.2 0.00 0.00 0.00 72 1016.6
20260507133604 56 341 5.2 12.2 0.00 0.00 0.00 73 1016.6
20260507132704 56 359 3.5 9.6 0.00 0.00 0.00 73 1016.6
20260507131804 55 11 2.6 7.8 0.00 0.00 0.00 73 1016.6
20260507130925 55 45 1.7 7.8 0.00 0.00 0.00 73 1016.5
20260507130004 55 68 1.7 7.8 0.00 0.00 0.00 74 1016.5
20260507125404 55 82 0.9 4.3 0.00 0.00 0.00 74 1016.4
20260507124504 55 63 0.9 4.3 0.00 0.00 0.00 73 1016.3
20260507123604 55 45 3.5 10.4 0.00 0.00 0.00 73 1016.4
20260507122705 55 49 1.7 4.3 0.00 0.00 0.00 74 1016.3
20260507121804 56 49 2.6 7.0 0.00 0.00 0.00 73 1016.3
20260507120904 56 34 1.7 7.8 0.00 0.00 0.00 73 1016.3
20260507120005 56 353 0.9 3.5 0.00 0.00 0.00 72 1016.2
20260507115404 56 326 1.7 8.7 0.00 0.00 0.00 72 1016.1
20260507114504 56 323 2.6 8.7 0.00 0.00 0.00 72 1016.1
20260507113604 57 337 4.3 8.7 0.00 0.00 0.00 72 1016.0
20260507112704 57 347 3.5 8.7 0.00 0.00 0.00 72 1015.8
20260507111825 57 352 4.3 9.6 0.00 0.00 0.00 72 1015.7
20260507110903 57 349 4.3 9.6 0.00 0.00 0.00 71 1015.7
20260507110004 58 339 3.5 9.6 0.00 0.00 0.00 71 1015.6
20260507105403 57 338 3.5 9.6 0.00 0.00 0.00 71 1015.5
20260507104525 57 355 3.5 8.7 0.00 0.00 0.00 72 1015.4
20260507103604 57 29 1.7 7.0 0.00 0.00 0.00 72 1015.5
20260507102725 58 27 0.9 4.3 0.00 0.00 0.00 72 1015.4
20260507101804 58 42 3.5 9.6 0.00 0.00 0.00 71 1015.4
20260507100903 58 60 3.5 7.8 0.00 0.00 0.00 71 1015.5
20260507100004 58 57 2.6 7.8 0.00 0.00 0.00 70 1015.4
20260507095404 58 52 2.6 7.0 0.00 0.00 0.00 70 1015.4
20260507094525 59 34 1.7 7.0 0.00 0.00 0.00 70 1015.3
20260507093604 59 41 3.5 10.4 0.00 0.00 0.00 69 1015.3
20260507092704 59 15 3.5 10.4 0.00 0.00 0.00 69 1015.3
20260507091804 59 360 2.6 10.4 0.00 0.00 0.00 69 1015.3
20260507090904 60 55 0.9 4.3 0.00 0.00 0.00 69 1015.3
20260507090005 60 14 1.7 8.7 0.00 0.00 0.00 68 1015.4
20260507085404 60 353 3.5 10.4 0.00 0.00 0.00 68 1015.3
20260507084504 60 52 0.9 5.2 0.00 0.00 0.00 68 1015.2
20260507083605 61 279 1.7 5.2 0.00 0.00 0.00 68 1015.1
20260507082704 61 139 1.7 7.8 0.00 0.00 0.00 67 1015.1
20260507081804 61 72 0.9 3.5 0.00 0.00 0.00 67 1015.2
20260507080903 61 196 0.0 5.2 0.00 0.00 0.00 67 1015.2
20260507080004 61 184 1.7 7.0 0.00 0.00 0.00 67 1015.2
20260507075403 61 124 0.9 3.5 0.00 0.00 0.00 67 1015.3
20260507074504 62 114 0.9 4.3 0.00 0.00 0.00 67 1015.2
20260507073604 62 325 4.3 12.2 0.00 0.00 0.00 67 1015.1
20260507072704 62 333 5.2 13.0 0.00 0.00 0.00 68 1015.1
20260507071805 62 314 4.3 13.0 0.00 0.00 0.00 68 1015.0
20260507070904 62 317 6.1 16.5 0.00 0.00 0.00 68 1015.0
20260507070009 62 323 4.3 13.0 0.00 0.00 0.00 69 1015.1
20260507065404 62 329 5.2 12.2 0.00 0.00 0.00 69 1015.1
20260507064525 62 329 3.5 9.6 0.00 0.00 0.00 68 1015.1
20260507063604 62 309 5.2 12.2 0.00 0.00 0.00 68 1015.1
20260507062704 63 311 5.2 12.2 0.00 0.00 0.00 67 1015.1
20260507061804 63 317 4.3 10.4 0.00 0.00 0.00 67 1015.2
20260507060904 63 320 4.3 12.2 0.00 0.00 0.00 67 1015.3
20260507060004 63 301 5.2 15.6 0.00 0.00 0.00 67 1015.4
20260507055404 63 303 5.2 15.6 0.00 0.00 0.00 67 1015.4
20260507054504 63 311 6.1 13.9 0.00 0.00 0.00 66 1015.6
20260507053603 64 328 6.1 13.9 0.00 0.00 0.00 66 1015.6
20260507052704 64 317 4.3 13.0 0.00 0.00 0.00 65 1015.6
20260507051825 64 325 5.2 13.0 0.00 0.00 0.00 64 1015.7
20260507050904 65 337 5.2 15.6 0.00 0.00 0.00 63 1015.8
20260507050026 65 328 4.3 10.4 0.00 0.00 0.00 61 1015.7
20260507045404 65 319 3.5 9.6 0.00 0.00 0.00 59 1015.7
20260507044525 66 339 3.5 9.6 0.00 0.00 0.00 59 1015.7
20260507043626 66 343 2.6 8.7 0.00 0.00 0.00 56 1015.7
20260507042704 67 332 4.3 12.2 0.00 0.00 0.00 54 1015.7
20260507041825 67 331 5.2 13.9 0.00 0.00 0.00 51 1015.5
20260507040904 68 311 5.2 15.6 0.00 0.00 0.00 51 1015.4
20260507040004 68 320 6.1 18.2 0.00 0.00 0.00 49 1015.3
20260507035404 68 339 4.3 18.2 0.00 0.00 0.00 49 1015.2
20260507034504 68 294 2.6 8.7 0.00 0.00 0.00 50 1015.1
20260507033603 68 327 3.5 9.6 0.00 0.00 0.00 49 1015.1
20260507032725 69 299 4.3 12.2 0.00 0.00 0.00 48 1014.9
20260507031804 69 247 3.5 13.0 0.00 0.00 0.00 48 1014.7
20260507030904 70 254 2.6 10.4 0.00 0.00 0.00 47 1014.7
20260507030004 70 309 3.5 12.2 0.00 0.00 0.00 47 1014.7
20260507025404 70 286 3.5 10.4 0.00 0.00 0.00 47 1014.8
20260507024504 70 293 3.5 10.4 0.00 0.00 0.00 47 1014.7
20260507023624 71 298 5.2 13.0 0.00 0.00 0.00 46 1014.6
20260507022725 71 296 5.2 16.5 0.00 0.00 0.00 46 1014.5
20260507021804 70 276 7.0 19.1 0.00 0.00 0.00 47 1014.5
20260507020904 70 282 8.7 19.1 0.00 0.00 0.00 46 1014.5
20260507020004 70 289 7.8 20.9 0.00 0.00 0.00 46 1014.3
20260507015404 70 287 10.4 25.2 0.00 0.00 0.00 46 1014.2
20260507014504 71 286 9.6 22.6 0.00 0.00 0.00 46 1014.2
20260507013625 71 293 8.7 17.4 0.00 0.00 0.00 45 1014.1
20260507012704 72 294 7.8 17.4 0.00 0.00 0.00 45 1014.2
20260507011804 72 305 7.8 17.4 0.00 0.00 0.00 44 1014.2
20260507010004 72 321 7.0 18.2 0.00 0.00 0.00 44 1014.2
20260507005404 72 314 7.8 18.2 0.00 0.00 0.00 43 1014.3
20260507004504 73 314 6.1 16.5 0.00 0.00 0.00 43 1014.3
20260507003603 73 312 5.2 13.9 0.00 0.00 0.00 43 1014.2
20260507002704 73 313 8.7 20.9 0.00 0.00 0.00 42 1014.2
20260507001804 73 311 7.0 20.9 0.00 0.00 0.00 42 1014.0
20260507000904 73 302 7.0 18.2 0.00 0.00 0.00 41 1014.0
20260507000025 73 315 7.8 18.2 0.00 0.00 0.00 41 1013.9
20260506235403 73 323 8.7 18.2 0.00 0.00 0.00 40 1013.9
20260506234525 73 316 8.7 25.2 0.00 0.00 0.00 40 1013.8
20260506233604 74 321 8.7 25.2 0.00 0.00 0.00 40 1013.7
20260506232706 74 326 11.3 22.6 0.00 0.00 0.00 41 1013.6
20260506231825 75 323 10.4 21.7 0.00 0.00 0.00 41 1013.8
20260506230904 76 334 12.2 26.9 0.00 0.00 0.00 40 1013.7
20260506230004 76 326 11.3 25.2 0.00 0.00 0.00 40 1013.7
20260506225404 76 334 11.3 25.2 0.00 0.00 0.00 41 1013.7
20260506224504 75 323 12.2 24.3 0.00 0.00 0.00 42 1013.7